This is the latest recevied weather packets stored in our database for station/object KN6WGU. If no packets are shown the sender has not sent any weather packets the latest 10 day(s).
| Time | Temp. | Humidity | Pressure | Rain* | Wind** | Luminosity | Snow |
|---|---|---|---|---|---|---|---|
| 1788455816 | 32.78° C | 69% | 1007.8 hPa | 0 mm | - | 215 W/m² | - |
| 1788455512 | 32.78° C | 69% | 1007.8 hPa | 0 mm | - | 209 W/m² | - |
| 1788455210 | 32.78° C | 68% | 1007.7 hPa | 0 mm | - | 227 W/m² | - |
| 1788454907 | 32.22° C | 71% | 1007.8 hPa | 0 mm | - | 249 W/m² | - |
| 1788454604 | 32.22° C | 70% | 1008 hPa | 0 mm | - | 362 W/m² | - |
| 1788454299 | 31.67° C | 72% | 1007.7 hPa | 0 mm | - | 205 W/m² | - |
| 1788453994 | 31.67° C | 72% | 1007.8 hPa | 0 mm | - | 239 W/m² | - |
| 1788453690 | 31.11° C | 72% | 1007.9 hPa | 0 mm | - | 232 W/m² | - |
| 1788453409 | 31.11° C | 71% | 1007.9 hPa | 0 mm | - | 223 W/m² | - |
| 1788453086 | 31.11° C | 72% | 1007.9 hPa | 0 mm | - | 209 W/m² | - |
| 1788452782 | 31.11° C | 72% | 1008 hPa | 0 mm | - | 199 W/m² | - |
| 1788452479 | 31.11° C | 73% | 1008.3 hPa | 0 mm | - | 157 W/m² | - |
| 1788452179 | 31.11° C | 73% | 1008.3 hPa | 0 mm | - | 145 W/m² | - |
| 1788451874 | 31.11° C | 71% | 1008.3 hPa | 0 mm | - | 134 W/m² | - |
| 1788451569 | 31.11° C | 73% | 1008.4 hPa | 0 mm | - | 112 W/m² | - |
| 1788451263 | 30.56° C | 74% | 1008.3 hPa | 0 mm | - | 107 W/m² | - |
| 1788450962 | 30.56° C | 73% | 1008.2 hPa | 0 mm | - | 87 W/m² | - |
| 1788450657 | 30.56° C | 72% | 1008 hPa | 0 mm | - | 88 W/m² | - |
| 1788450354 | 30.56° C | 72% | 1008 hPa | 0 mm | - | 96 W/m² | - |
| 1788450049 | 30.56° C | 72% | 1008.1 hPa | 0 mm | - | 103 W/m² | - |
| 1788449744 | 30.56° C | 73% | 1008.1 hPa | 0 mm | - | 117 W/m² | - |
| 1788449440 | 30.56° C | 72% | 1008.1 hPa | 0 mm | - | 144 W/m² | - |
| 1788449136 | 30.56° C | 71% | 1008.4 hPa | 0 mm | - | 166 W/m² | - |
| 1788448833 | 30.56° C | 74% | 1008.2 hPa | 0 mm | - | 179 W/m² | - |
| 1788448531 | 30.56° C | 72% | 1008.1 hPa | 0 mm | - | 183 W/m² | - |
* Rain latest hour (hover to see other rain measurements)
** Current wind speed in m/s (hover to see current wind gust speed)